QPF
0.00 0.00 0.00 0.00 0.00 0.00 0.00 0.00 0.00 0.00 0.00 0.00 0.00 0.00 0.00 0.00 0.00 0.00 0.00 0.00 0.00 0.00 0.00 0.00 0.01 0.01 0.01 0.02 0.02 0.02 0.02 0.02 0.02 0.02 0.02 0.03 0.03 0.04
0.00 0.00 0.00 0.00 0.00 0.00 0.00 0.00 0.00 0.00 0.00 0.00 0.00 0.00 0.00 0.00 0.00 0.00 0.00 0.00 0.00 0.00 0.00 0.00 0.00 0.01 0.01 0.02 0.02 0.02 0.02 0.02 0.02 0.03 0.03 0.04 0.04 0.04
0.00 0.00 0.00 0.00 0.00 0.00 0.00 0.00 0.00 0.01 0.01 0.00 0.00 0.00 0.00 0.00 0.00 0.00 0.00 0.00 0.00 0.00 0.00 0.00 0.00 0.01 0.01 0.01 0.01 0.02 0.02 0.02 0.03 0.03 0.03 0.03 0.04 0.04
0.00 0.00 0.00 0.00 0.01 0.01 0.01 0.01 0.01 0.01 0.01 0.01 0.00 0.00 0.00 0.00 0.00 0.00 0.00 0.00 0.00 0.00 0.00 0.00 0.00 0.01 0.01 0.01 0.01 0.02 0.02 0.02 0.02 0.02 0.02 0.03 0.03 0.04
0.00 0.00 0.00 0.01 0.01 0.01 0.01 0.01 0.01 0.01 0.01 0.02 0.01 0.00 0.00 0.00 0.00 0.00 0.00 0.00 0.00 0.00 0.00 0.00 0.00 0.01 0.01 0.01 0.02 0.02 0.02 0.02 0.02 0.02 0.02 0.02 0.02 0.03
0.00 0.00 0.00 0.01 0.01 0.01 0.02 0.02 0.02 0.02 0.02 0.02 0.01 0.00 0.00 0.00 0.01 0.01 0.00 0.00 0.00 0.00 0.00 0.00 0.00 0.00 0.00 0.01 0.01 0.01 0.01 0.01 0.01 0.02 0.02 0.02 0.02 0.03
0.00 0.00 0.01 0.01 0.01 0.01 0.02 0.02 0.02 0.03 0.03 0.03 0.02 0.01 0.01 0.01 0.01 0.01 0.01 0.01 0.00 0.00 0.00 0.00 0.00 0.00 0.00 0.00 0.00 0.00 0.00 0.01 0.01 0.01 0.02 0.02 0.02 0.03
0.00 0.00 0.01 0.01 0.01 0.02 0.03 0.03 0.03 0.03 0.03 0.03 0.02 0.01 0.01 0.00 0.01 0.01 0.02 0.02 0.01 0.00 0.00 0.00 0.00 0.00 0.00 0.00 0.00 0.00 0.00 0.01 0.01 0.01 0.02 0.02 0.02 0.03
0.00 0.00 0.01 0.01 0.01 0.02 0.03 0.05 0.07 0.06 0.04 0.03 0.03 0.02 0.01 0.00 0.01 0.02 0.02 0.02 0.01 0.00 0.00 0.01 0.00 0.00 0.00 0.00 0.00 0.00 0.01 0.01 0.01 0.02 0.02 0.03 0.03 0.03
0.00 0.01 0.01 0.01 0.01 0.02 0.02 0.03 0.04 0.05 0.06 0.07 0.07 0.03 0.01 0.01 0.01 0.02 0.02 0.03 0.02 0.01 0.01 0.02 0.00 0.00 0.00 0.00 0.00 0.00 0.01 0.01 0.02 0.02 0.03 0.03 0.03 0.03
0.01 0.01 0.01 0.01 0.01 0.02 0.05 0.04 0.02 0.01 0.02 0.04 0.07 0.06 0.04 0.03 0.04 0.09 0.11 0.09 0.06 0.02 0.01 0.01 0.01 0.00 0.00 0.00 0.00 0.00 0.00 0.01 0.01 0.02 0.02 0.03 0.03 0.04
0.01 0.01 0.01 0.01 0.01 0.03 0.07 0.06 0.03 0.01 0.01 0.02 0.04 0.06 0.06 0.05 0.05 0.07 0.07 0.06 0.04 0.03 0.01 0.01 0.01 0.01 0.01 0.00 0.00 0.00 0.00 0.00 0.01 0.01 0.02 0.03 0.03 0.03
0.02 0.01 0.01 0.01 0.03 0.04 0.06 0.06 0.03 0.02 0.02 0.03 0.03 0.02 0.03 0.04 0.04 0.04 0.04 0.03 0.03 0.02 0.01 0.01 0.01 0.01 0.02 0.01 0.00 0.00 0.00 0.00 0.00 0.00 0.01 0.01 0.02 0.03
0.01 0.01 0.01 0.01 0.03 0.05 0.06 0.07 0.05 0.06 0.08 0.06 0.04 0.03 0.01 0.01 0.02 0.02 0.02 0.02 0.02 0.01 0.01 0.01 0.02 0.02 0.03 0.02 0.01 0.00 0.00 0.00 0.01 0.00 0.00 0.00 0.01 0.02
0.02 0.01 0.02 0.02 0.03 0.04 0.05 0.07 0.07 0.09 0.11 0.07 0.04 0.02 0.01 0.01 0.01 0.01 0.01 0.01 0.01 0.01 0.01 0.01 0.02 0.02 0.03 0.03 0.02 0.01 0.00 0.00 0.01 0.01 0.01 0.01 0.01 0.01
0.02 0.03 0.03 0.04 0.04 0.03 0.03 0.04 0.06 0.08 0.08 0.06 0.03 0.02 0.01 0.01 0.01 0.01 0.01 0.01 0.01 0.01 0.00 0.01 0.01 0.02 0.03 0.03 0.02 0.02 0.01 0.00 0.00 0.01 0.01 0.01 0.01 0.02
0.04 0.05 0.05 0.06 0.06 0.06 0.04 0.03 0.03 0.05 0.05 0.04 0.03 0.02 0.01 0.01 0.01 0.01 0.01 0.01 0.01 0.01 0.00 0.00 0.00 0.01 0.02 0.03 0.03 0.02 0.01 0.01 0.00 0.00 0.01 0.02 0.01 0.01
0.06 0.06 0.04 0.04 0.04 0.04 0.03 0.03 0.02 0.02 0.02 0.03 0.02 0.01 0.01 0.01 0.01 0.00 0.00 0.01 0.01 0.01 0.00 0.00 0.01 0.02 0.02 0.02 0.02 0.02 0.01 0.01 0.00 0.01 0.01 0.02 0.02 0.01
0.06 0.05 0.03 0.03 0.02 0.02 0.02 0.02 0.02 0.01 0.01 0.02 0.02 0.01 0.01 0.01 0.01 0.01 0.01 0.01 0.01 0.01 0.00 0.01 0.02 0.04 0.04 0.02 0.00 0.01 0.01 0.01 0.01 0.01 0.01 0.02 0.02 0.01
0.04 0.03 0.03 0.02 0.02 0.02 0.02 0.02 0.01 0.02 0.02 0.02 0.02 0.01 0.01 0.01 0.01 0.01 0.01 0.01 0.01 0.01 0.01 0.01 0.02 0.03 0.05 0.03 0.02 0.00 0.01 0.01 0.02 0.02 0.01 0.01 0.01 0.01
0.02 0.02 0.02 0.02 0.02 0.02 0.02 0.01 0.01 0.01 0.01 0.01 0.01 0.01 0.01 0.02 0.02 0.01 0.01 0.01 0.02 0.02 0.02 0.01 0.01 0.02 0.04 0.06 0.05 0.01 0.00 0.00 0.01 0.02 0.02 0.02 0.02 0.02
0.02 0.02 0.02 0.02 0.02 0.02 0.02 0.02 0.02 0.02 0.01 0.01 0.01 0.02 0.02 0.02 0.02 0.02 0.02 0.02 0.02 0.02 0.02 0.01 0.01 0.02 0.05 0.07 0.04 0.01 0.00 0.00 0.01 0.01 0.02 0.04 0.04 0.03
0.02 0.02 0.02 0.02 0.02 0.02 0.02 0.02 0.02 0.01 0.01 0.01 0.02 0.02 0.02 0.03 0.02 0.03 0.03 0.03 0.03 0.02 0.02 0.02 0.01 0.02 0.04 0.05 0.04 0.02 0.01 0.01 0.01 0.01 0.01 0.02 0.02 0.03
MSLP
1012.01 1012.44 1012.86 1013.23 1013.51 1013.69 1013.78 1013.80 1013.77 1013.75 1013.75 1013.80 1013.89 1014.03 1014.20 1014.37 1014.54 1014.69 1014.83 1014.97 1015.13 1015.31 1015.51 1015.73 1015.95 1016.15 1016.31 1016.40 1016.42 1016.38 1016.28 1016.17 1016.05 1015.95 1015.88 1015.81 1015.75 1015.65
1010.11 1010.54 1010.97 1011.37 1011.72 1011.98 1012.17 1012.29 1012.38 1012.47 1012.57 1012.70 1012.86 1013.05 1013.23 1013.41 1013.58 1013.72 1013.86 1014.00 1014.16 1014.35 1014.57 1014.81 1015.05 1015.26 1015.43 1015.53 1015.54 1015.50 1015.40 1015.29 1015.18 1015.09 1015.04 1015.01 1014.97 1014.90
1008.21 1008.59 1009.00 1009.40 1009.77 1010.09 1010.37 1010.60 1010.82 1011.04 1011.27 1011.52 1011.78 1012.04 1012.28 1012.50 1012.68 1012.82 1012.95 1013.08 1013.23 1013.41 1013.62 1013.86 1014.09 1014.30 1014.46 1014.56 1014.57 1014.53 1014.44 1014.33 1014.24 1014.18 1014.16 1014.15 1014.14 1014.09
1006.38 1006.68 1007.03 1007.39 1007.76 1008.11 1008.45 1008.78 1009.12 1009.48 1009.85 1010.24 1010.62 1010.99 1011.31 1011.58 1011.80 1011.96 1012.09 1012.21 1012.34 1012.50 1012.69 1012.90 1013.11 1013.30 1013.44 1013.52 1013.53 1013.49 1013.42 1013.33 1013.26 1013.23 1013.22 1013.24 1013.24 1013.19
1004.67 1004.88 1005.14 1005.44 1005.77 1006.13 1006.50 1006.91 1007.35 1007.83 1008.34 1008.87 1009.38 1009.86 1010.28 1010.63 1010.89 1011.09 1011.24 1011.35 1011.47 1011.61 1011.77 1011.94 1012.12 1012.28 1012.40 1012.46 1012.47 1012.43 1012.37 1012.30 1012.26 1012.24 1012.25 1012.27 1012.27 1012.20
1003.14 1003.24 1003.40 1003.62 1003.89 1004.22 1004.60 1005.05 1005.56 1006.14 1006.76 1007.40 1008.04 1008.63 1009.14 1009.57 1009.91 1010.15 1010.33 1010.46 1010.57 1010.70 1010.83 1010.98 1011.13 1011.26 1011.35 1011.41 1011.41 1011.38 1011.33 1011.28 1011.25 1011.25 1011.26 1011.26 1011.24 1011.14
1001.79 1001.78 1001.84 1001.96 1002.16 1002.43 1002.79 1003.25 1003.80 1004.43 1005.12 1005.85 1006.57 1007.26 1007.86 1008.38 1008.78 1009.09 1009.31 1009.48 1009.61 1009.74 1009.87 1010.00 1010.13 1010.24 1010.33 1010.37 1010.38 1010.36 1010.32 1010.29 1010.26 1010.26 1010.25 1010.23 1010.16 1010.01
1000.58 1000.48 1000.44 1000.48 1000.59 1000.80 1001.12 1001.54 1002.09 1002.73 1003.45 1004.22 1005.00 1005.75 1006.42 1007.01 1007.48 1007.86 1008.14 1008.37 1008.54 1008.70 1008.85 1008.99 1009.12 1009.23 1009.31 1009.36 1009.38 1009.37 1009.35 1009.32 1009.30 1009.29 1009.26 1009.19 1009.07 1008.86
999.44 999.27 999.16 999.12 999.16 999.31 999.56 999.94 1000.45 1001.06 1001.77 1002.54 1003.34 1004.11 1004.83 1005.47 1006.01 1006.46 1006.82 1007.11 1007.35 1007.56 1007.75 1007.93 1008.08 1008.21 1008.31 1008.38 1008.41 1008.42 1008.42 1008.40 1008.38 1008.35 1008.29 1008.18 1008.00 1007.72
998.29 998.08 997.93 997.84 997.84 997.93 998.13 998.45 998.90 999.46 1000.12 1000.86 1001.63 1002.40 1003.13 1003.81 1004.41 1004.92 1005.36 1005.74 1006.06 1006.34 1006.59 1006.82 1007.02 1007.18 1007.32 1007.41 1007.48 1007.51 1007.53 1007.52 1007.50 1007.45 1007.36 1007.21 1006.97 1006.63
997.07 996.86 996.70 996.60 996.57 996.63 996.79 997.06 997.45 997.94 998.54 999.21 999.93 1000.67 1001.40 1002.10 1002.74 1003.32 1003.83 1004.29 1004.70 1005.07 1005.39 1005.69 1005.94 1006.16 1006.34 1006.47 1006.57 1006.64 1006.67 1006.69 1006.66 1006.60 1006.49 1006.29 1006.00 1005.61
995.76 995.57 995.44 995.36 995.34 995.40 995.54 995.77 996.09 996.53 997.05 997.65 998.32 999.01 999.72 1000.42 1001.09 1001.73 1002.31 1002.85 1003.35 1003.80 1004.21 1004.57 1004.89 1005.16 1005.38 1005.56 1005.70 1005.80 1005.86 1005.88 1005.87 1005.79 1005.65 1005.42 1005.09 1004.66
994.39 994.24 994.16 994.12 994.14 994.22 994.35 994.56 994.85 995.23 995.69 996.22 996.83 997.48 998.17 998.87 999.56 1000.24 1000.88 1001.49 1002.07 1002.59 1003.07 1003.50 1003.88 1004.20 1004.48 1004.69 1004.87 1004.99 1005.08 1005.11 1005.09 1005.01 1004.85 1004.59 1004.22 1003.75
993.01 992.92 992.89 992.92 992.98 993.09 993.24 993.44 993.71 994.05 994.46 994.94 995.50 996.12 996.79 997.48 998.19 998.90 999.60 1000.27 1000.91 1001.50 1002.04 1002.52 1002.95 1003.32 1003.62 1003.88 1004.08 1004.22 1004.32 1004.36 1004.33 1004.23 1004.04 1003.75 1003.35 1002.85
991.72 991.67 991.69 991.77 991.87 992.01 992.18 992.38 992.64 992.95 993.33 993.79 994.32 994.92 995.58 996.28 997.01 997.75 998.49 999.21 999.89 1000.53 1001.11 1001.63 1002.09 1002.49 1002.83 1003.10 1003.31 1003.47 1003.56 1003.59 1003.54 1003.41 1003.19 1002.86 1002.42 1001.89
990.59 990.57 990.61 990.70 990.83 990.98 991.16 991.36 991.61 991.91 992.28 992.73 993.25 993.85 994.52 995.23 995.99 996.76 997.53 998.28 998.99 999.66 1000.27 1000.82 1001.30 1001.72 1002.07 1002.35 1002.56 1002.71 1002.79 1002.79 1002.70 1002.53 1002.26 1001.88 1001.40 1000.83
989.70 989.66 989.69 989.76 989.87 990.00 990.16 990.36 990.59 990.89 991.26 991.71 992.25 992.86 993.55 994.30 995.08 995.88 996.67 997.45 998.18 998.86 999.49 1000.05 1000.54 1000.97 1001.32 1001.60 1001.80 1001.93 1001.97 1001.93 1001.79 1001.56 1001.22 1000.78 1000.25 999.65
989.08 988.98 988.95 988.96 989.01 989.09 989.21 989.37 989.59 989.88 990.25 990.72 991.28 991.93 992.65 993.43 994.23 995.06 995.87 996.66 997.41 998.10 998.73 999.29 999.78 1000.21 1000.55 1000.82 1001.01 1001.11 1001.11 1001.01 1000.81 1000.50 1000.09 999.58 998.99 998.34
988.75 988.56 988.42 988.33 988.28 988.27 988.32 988.43 988.62 988.90 989.29 989.77 990.36 991.04 991.80 992.60 993.44 994.28 995.10 995.89 996.64 997.33 997.96 998.52 999.01 999.44 999.78 1000.04 1000.21 1000.28 1000.23 1000.08 999.80 999.41 998.91 998.32 997.66 996.96
988.69 988.38 988.11 987.90 987.73 987.62 987.58 987.63 987.78 988.04 988.42 988.92 989.54 990.24 991.02 991.85 992.69 993.54 994.36 995.15 995.89 996.57 997.19 997.75 998.25 998.67 999.02 999.27 999.43 999.47 999.38 999.17 998.82 998.34 997.75 997.08 996.34 995.59
988.89 988.45 988.06 987.71 987.42 987.20 987.07 987.05 987.15 987.39 987.76 988.27 988.89 989.61 990.39 991.22 992.06 992.89 993.70 994.47 995.18 995.85 996.46 997.02 997.53 997.96 998.31 998.57 998.72 998.74 998.62 998.36 997.94 997.38 996.71 995.95 995.14 994.33
989.32 988.78 988.27 987.81 987.41 987.09 986.87 986.79 986.84 987.05 987.40 987.89 988.50 989.21 989.98 990.78 991.60 992.39 993.17 993.90 994.59 995.23 995.84 996.39 996.90 997.35 997.72 997.99 998.14 998.16 998.01 997.71 997.24 996.61 995.87 995.03 994.15 993.27
989.96 989.35 988.76 988.21 987.72 987.33 987.05 986.90 986.91 987.08 987.40 987.86 988.44 989.11 989.83 990.59 991.35 992.09 992.81 993.49 994.14 994.76 995.34 995.90 996.41 996.87 997.26 997.56 997.72 997.74 997.58 997.25 996.74 996.07 995.26 994.36 993.41 992.48
Thickness
5490 5482 5476 5472 5462 5455 5447 5440 5432 5433 5444 5441 5433 5431 5424 5419 5416 5412 5410 5407 5405 5403 5401 5399 5398 5396 5395 5395 5394 5394 5395 5396 5396 5398 5400 5402 5405 5409
5482 5475 5470 5464 5455 5447 5439 5431 5424 5421 5427 5432 5425 5418 5411 5408 5403 5399 5397 5393 5392 5389 5388 5386 5385 5383 5382 5381 5380 5380 5381 5381 5382 5383 5384 5386 5388 5390
5475 5468 5464 5455 5447 5440 5430 5423 5416 5409 5411 5419 5408 5404 5397 5393 5390 5386 5383 5381 5378 5376 5374 5373 5371 5370 5369 5368 5367 5366 5366 5366 5366 5367 5368 5369 5371 5373
5467 5460 5456 5446 5439 5431 5423 5416 5409 5402 5399 5402 5397 5390 5385 5380 5376 5372 5370 5368 5365 5363 5361 5360 5359 5357 5356 5355 5354 5353 5352 5351 5351 5351 5351 5353 5354 5354
5460 5453 5447 5437 5431 5423 5415 5408 5402 5395 5390 5388 5387 5379 5374 5368 5362 5360 5358 5355 5353 5350 5348 5348 5346 5345 5343 5342 5341 5339 5338 5337 5336 5336 5335 5335 5336 5337
5450 5444 5438 5429 5423 5414 5406 5400 5393 5386 5380 5376 5374 5369 5362 5356 5350 5348 5345 5342 5340 5338 5337 5336 5334 5332 5331 5329 5327 5325 5324 5322 5322 5321 5320 5320 5320 5320
5439 5433 5427 5420 5414 5405 5398 5391 5383 5377 5371 5366 5363 5358 5353 5345 5341 5337 5333 5331 5330 5326 5324 5323 5320 5319 5317 5314 5312 5310 5309 5308 5307 5306 5306 5305 5305 5305
5426 5421 5415 5410 5405 5400 5395 5388 5378 5369 5363 5358 5355 5350 5346 5339 5332 5326 5321 5318 5319 5318 5312 5313 5308 5307 5304 5300 5297 5296 5295 5294 5293 5293 5292 5292 5291 5291
5415 5409 5405 5400 5395 5389 5385 5382 5377 5370 5362 5352 5347 5344 5337 5330 5321 5315 5311 5309 5311 5307 5299 5302 5298 5296 5293 5289 5287 5284 5283 5281 5281 5280 5279 5278 5278 5277
5405 5400 5394 5390 5385 5379 5373 5369 5365 5360 5355 5349 5343 5336 5329 5321 5313 5308 5304 5301 5299 5295 5289 5289 5288 5285 5283 5279 5275 5272 5271 5269 5268 5267 5266 5265 5264 5264
5394 5389 5384 5380 5377 5372 5366 5360 5355 5350 5345 5340 5335 5329 5322 5315 5306 5298 5294 5290 5291 5289 5281 5276 5276 5272 5271 5269 5265 5261 5259 5257 5256 5254 5253 5252 5251 5251
5383 5379 5377 5372 5368 5364 5358 5352 5347 5341 5333 5328 5324 5319 5314 5308 5302 5295 5288 5283 5281 5278 5272 5264 5263 5256 5259 5262 5256 5251 5247 5245 5242 5241 5240 5240 5238 5237
5373 5369 5365 5364 5361 5357 5352 5345 5339 5332 5324 5317 5312 5307 5301 5296 5291 5286 5280 5274 5270 5268 5262 5254 5251 5246 5244 5250 5248 5242 5237 5234 5230 5229 5228 5228 5228 5227
5363 5360 5356 5355 5352 5349 5344 5339 5333 5326 5317 5310 5304 5299 5293 5288 5283 5277 5272 5267 5263 5259 5253 5246 5242 5238 5235 5237 5239 5236 5229 5224 5221 5220 5219 5218 5218 5219
5354 5353 5350 5346 5343 5338 5335 5330 5324 5316 5310 5303 5298 5293 5287 5281 5274 5268 5262 5258 5254 5250 5245 5239 5234 5231 5227 5227 5228 5226 5221 5219 5214 5212 5211 5210 5211 5212
5344 5342 5341 5338 5333 5328 5323 5318 5313 5307 5301 5296 5290 5284 5277 5271 5265 5259 5254 5249 5245 5243 5238 5232 5228 5223 5220 5219 5216 5216 5212 5209 5208 5205 5204 5205 5206 5207
5334 5331 5327 5324 5320 5316 5311 5306 5301 5296 5292 5287 5281 5275 5269 5263 5258 5252 5246 5241 5237 5236 5232 5226 5220 5217 5214 5210 5209 5209 5206 5204 5202 5199 5198 5201 5205 5206
5329 5323 5319 5315 5312 5308 5303 5297 5292 5287 5282 5278 5272 5267 5262 5256 5251 5245 5240 5235 5232 5229 5225 5220 5212 5208 5207 5207 5204 5202 5200 5198 5197 5195 5193 5196 5203 5207
5323 5317 5312 5308 5304 5299 5294 5289 5285 5280 5275 5269 5265 5260 5255 5249 5244 5239 5235 5230 5226 5223 5219 5213 5207 5202 5202 5207 5205 5199 5195 5194 5192 5192 5192 5194 5201 5207
5314 5309 5304 5300 5295 5291 5286 5282 5277 5272 5267 5262 5258 5253 5248 5243 5238 5234 5230 5225 5222 5218 5214 5209 5203 5199 5198 5200 5201 5197 5192 5189 5188 5190 5193 5195 5200 5206
5305 5301 5296 5292 5288 5284 5280 5275 5271 5266 5262 5256 5252 5247 5242 5237 5233 5229 5225 5222 5218 5214 5211 5208 5204 5200 5195 5192 5193 5196 5191 5189 5189 5190 5193 5195 5201 5207
5297 5293 5289 5285 5281 5277 5273 5269 5264 5260 5255 5250 5246 5242 5237 5232 5229 5224 5220 5216 5213 5209 5207 5204 5199 5194 5190 5189 5191 5192 5191 5191 5191 5194 5197 5200 5203 5213
5290 5286 5283 5279 5275 5271 5267 5263 5259 5255 5251 5246 5242 5238 5233 5229 5224 5220 5217 5213 5209 5206 5202 5200 5196 5192 5190 5188 5187 5189 5190 5192 5193 5196 5202 5207 5212 5219